This demonstration page uses our WeatherBlox Daily Observations layout. Learn more.

Left ArrowRight Arrow

39.01783, -85.05884

Hourly Observations for May 9, 2021

Temp ( °F °C ) Dew Point ( °F °C ) Humidity (%) Winds ( mph kmh ) Pressure ( in mb ) Visibility ( mi km ) Precip ( " mm )
12:52 am 00:52 Cloudy with Light Rain 52 11.1 39 3.9 61 61 E 8 13 30.01 1016 10 16.0934 0.001 0.001
1:52 am 01:52 Cloudy with Light Rain 50 10 42 5.6 74 74 E 9 15 30.03 1017 10 16.0934 0.03 0.762
2:52 am 02:52 Cloudy 49 9.4 42 5.6 77 77 E 12 19 29.99 1016 10 16.0934 0.01 0.254
3:52 am 03:52 Cloudy 48 8.9 41 5 77 77 E 16 26 29.95 1014 10 16.0934 N/A
4:52 am 04:52 Cloudy 48 8.9 40 4.4 74 74 E 16 26 29.89 1012 10 16.0934 N/A
5:52 am 05:52 Cloudy 48 8.9 39 3.9 71 71 ESE 14 22 29.84 1011 10 16.0934 N/A
6:52 am 06:52 Cloudy 49 9.4 38 3.3 66 66 ESE 13 20 29.83 1010 10 16.0934 N/A
7:52 am 07:52 Cloudy 50 10 38 3.3 63 63 ESE 13 20 29.78 1009 10 16.0934 N/A
8:52 am 08:52 Cloudy 51 10.6 40 4.4 66 66 SE 13 20 29.72 1007 10 16.0934 N/A
9:47 am 09:47 Cloudy with Nearby Thunderstorms 54 12 43 6 67 67 E 7 11 29.67 1005 10 16.0934 0.001 0.001
9:52 am 09:52 Cloudy with Nearby Thunderstorms 53 11.7 43 6.1 69 69 E 9 15 29.66 1005 10 16.0934 0.001 0.001
10:06 am 10:06 Cloudy with Light Rain 53 11.7 44 6.7 72 72 ENE 8 13 29.68 1005 10 16.0934 0.001 0.001
10:19 am 10:19 Cloudy with Light Thunderstorms 52 11.1 45 7.2 77 77 N 15 24 29.76 1008 7 11.26538 0.01 0.254
10:31 am 10:31 Cloudy with Heavy Thunderstorms 50 10 45 7.2 83 83 NE 10 17 29.74 1007 2 3.21868 0.04 1.016
10:52 am 10:52 Cloudy with Heavy Thunderstorms 51 10.6 46 7.8 83 83 E 6 9 29.69 1005 2 3.21868 0.15 3.81
11:14 am 11:14 Cloudy with Rain 51 10.6 47 8.3 86 86 E 8 13 29.69 1005 2.5 4.02335 0.1 2.54
11:52 am 11:52 Cloudy with Rain 53 11.7 50 10 89 89 SSE 8 13 29.67 1005 3 4.82802 0.27 6.858
12:52 pm 12:52 Cloudy with Light Rain 61 16.1 57 13.9 87 87 S 20 31 29.57 1001 10 16.0934 0.05 1.27
1:52 pm 13:52 Cloudy 64 17.8 57 13.9 78 78 SW 20 31 29.61 1003 10 16.0934 0.001 0.001
2:52 pm 14:52 Cloudy 65 18.3 57 13.9 76 76 SSW 18 30 29.6 1002 10 16.0934 N/A
3:52 pm 15:52 Cloudy with Light Rain 65 18.3 57 13.9 76 76 SW 20 31 29.6 1002 10 16.0934 0.001 0.001
4:11 pm 16:11 Cloudy with Heavy Rain 62 16.7 59 15 90 90 WNW 23 37 29.64 1004 1 1.60934 0.05 1.27
5:52 pm 17:52 Cloudy 53 11.7 49 9.4 86 86 NNW 21 33 29.73 1007 10 16.0934 N/A
6:02 pm 18:02 Cloudy 51 10.6 48 8.9 89 89 NNW 21 33 29.77 1008 10 16.0934 N/A
6:52 pm 18:52 Cloudy 47 8.3 42 5.6 83 83 NW 23 37 29.82 1010 10 16.0934 N/A
7:52 pm 19:52 Cloudy 45 7.2 40 4.4 83 83 N 16 26 29.87 1012 10 16.0934 N/A
8:52 pm 20:52 Cloudy 45 7.2 39 3.9 80 80 N 12 19 29.94 1014 10 16.0934 N/A
9:52 pm 21:52 Cloudy 44 6.7 39 3.9 83 83 N 13 20 29.96 1015 10 16.0934 N/A
10:52 pm 22:52 Cloudy 44 6.7 38 3.3 79 79 N 12 19 29.98 1015 10 16.0934 N/A
11:28 pm 23:28 Cloudy 45 7.2 37 2.8 74 74 N 12 19 30.01 1016 10 16.0934 N/A
11:52 pm 23:52 Cloudy 44 6.7 36 2.2 73 73 NNE 13 20 29.99 1016 10 16.0934 N/A

Powered by AerisWeather